This is the latest recevied weather packets stored in our database for station/object WY7ATH-2. If no packets are shown the sender has not sent any weather packets the latest 10 day(s).
| Time | Temp. | Humidity | Pressure | Rain* | Wind** | Luminosity | Snow |
|---|---|---|---|---|---|---|---|
| 1788206133 | 28.33° C | - | - | 20.57 mm | 0 m/s | - | - |
| 1788205532 | 27.78° C | - | - | 20.57 mm | 0 m/s | - | - |
| 1788204935 | 28.89° C | - | - | 20.57 mm | 2.24 m/s, 245° | - | - |
| 1788204339 | 26.67° C | - | - | 20.57 mm | 5.81 m/s, 271° | - | - |
| 1788203741 | 26.67° C | - | - | 20.57 mm | 4.02 m/s, 271° | - | - |
| 1788203144 | 26.67° C | - | - | 20.57 mm | 3.58 m/s, 257° | - | - |
| 1788200752 | 29.44° C | - | - | 19.05 mm | 6.26 m/s, 283° | - | - |
| 1788199574 | 27.22° C | - | - | 19.05 mm | 0 m/s | - | - |
| 1788198961 | 26.67° C | - | - | 20.32 mm | 5.36 m/s, 257° | - | - |
| 1788198360 | 26.11° C | - | - | 20.32 mm | 5.36 m/s, 274° | - | - |
| 1788197166 | 24.44° C | - | - | 20.32 mm | 0 m/s | - | - |
| 1788196569 | 23.89° C | - | - | 20.32 mm | 4.92 m/s, 253° | - | - |
| 1788195972 | 23.89° C | - | - | 20.32 mm | 4.02 m/s, 246° | - | - |
| 1788195375 | 26.11° C | - | - | 9.14 mm | 0 m/s | - | - |
| 1788194178 | 26.11° C | - | - | 9.14 mm | 4.92 m/s, 273° | - | - |
| 1788193592 | 23.89° C | - | - | 9.14 mm | 3.13 m/s, 226° | - | - |
| 1788191189 | 21.67° C | - | - | 2.79 mm | 3.58 m/s, 250° | - | - |
| 1788190592 | 21.11° C | - | - | 2.79 mm | 0.89 m/s, 215° | - | - |
| 1788189398 | 18.89° C | - | - | 2.79 mm | 1.79 m/s, 212° | - | - |
| 1788188802 | 18.33° C | - | - | 2.79 mm | 0 m/s | - | - |
| 1788188204 | 17.78° C | - | - | 1.02 mm | 4.02 m/s, 235° | - | - |
| 1788187604 | 17.78° C | - | - | 1.02 mm | 4.02 m/s, 250° | - | - |
| 1788186410 | 16.11° C | - | - | 1.02 mm | 0 m/s | - | - |
| 1788185813 | 15.56° C | - | - | 1.02 mm | 0 m/s | - | - |
| 1788185216 | 15.56° C | - | - | 1.02 mm | 0 m/s | - | - |
* Rain latest hour (hover to see other rain measurements)
** Current wind speed in m/s (hover to see current wind gust speed)